Time,B instrument,Bx,By,Bz,sigma B,Ion instrument,Status,Tp_par,Tp_perp,carrot,r_sun,clat,clong,earth_he_angle,n_p,vp_x,vp_y,vp_z,vth_p_par,vth_p_perp
1980-05-16 00:00:41,1,15.1,-2.35,-2.5,0.618466,1,1,56170.1,49538.8,1695,0.41225362,-6.8740549,260.42114,308.50708,59.7367,248.395,-8.64038,-1.81452,30.4516,28.5977
1980-05-16 00:34:00,1,3.86667,-16.5667,-6.53333,0.305505,1,1,51284.7,39364.9,1695,0.4119283,-6.9306808,260.09244,308.48306,61.2961,273.51,10.697,0.351908,29.0972,25.4925
1980-05-16 00:34:08,-1,nan,nan,nan,nan,1,4,nan,nan,1695,0.41195685,-6.8703709,260.1875,308.57813,nan,nan,nan,nan,nan,nan
1980-05-16 00:34:41,1,3.68182,-16.6364,-6.27273,1.03676,1,1,54577.5,41719.6,1695,0.41192225,-6.9306102,260.08606,308.4845,64.552,274.295,10.3862,-0.224429,30.0168,26.2439
1980-05-16 00:34:49,1,3.28182,-16.6455,-6.92727,1.27227,1,1,46230.3,39882.7,1695,0.41195685,-6.8703709,260.17969,308.57813,58.753,279.882,14.2814,3.54478,27.6262,25.6596
1980-05-16 00:35:21,1,2.21,-16.45,-9.24,0.577754,1,1,52810.4,39995.6,1695,0.41194808,-6.8702621,260.17798,308.58032,59.3474,275.657,10.2682,4.69367,29.5269,25.6959
1980-05-16 00:36:02,1,4.5,-16.3417,-7.74167,2.15403,1,1,50624.0,40185.1,1695,0.41193938,-6.8701544,260.17236,308.58252,57.5937,274.901,10.9217,1.85569,28.9092,25.7567
1980-05-16 00:36:42,1,4.09,-16.4,-8.0,0.463573,1,1,53364.6,39996.5,1695,0.41193938,-6.8701544,260.16846,308.58252,60.3262,274.628,9.94146,1.93667,29.6814,25.6962
1980-05-16 00:37:23,1,4.25833,-16.25,-8.5,0.583036,1,1,49124.8,40245.1,1695,0.41193062,-6.8700457,260.1626,308.58447,63.0428,275.013,11.6779,3.62961,28.4779,25.7759
1980-05-16 00:38:03,1,5.53636,-16.3727,-7.64545,0.552231,1,1,51380.6,39349.3,1695,0.41192192,-6.8699369,260.15698,308.58667,60.1579,273.616,7.68578,1.72971,29.1244,25.4874
1980-05-16 00:38:44,1,5.41818,-16.2727,-8.23636,0.480874,1,1,51488.6,42068.3,1695,0.41192192,-6.8699369,260.15308,308.58667,62.929,272.416,8.73336,1.08289,29.155,26.3533
1980-05-16 00:39:24,1,5.81818,-15.7182,-8.96364,0.327273,1,1,47872.8,39999.6,1695,0.41191316,-6.8698292,260.14722,308.58862,63.5011,272.867,5.96497,1.3248,28.1127,25.6972
1980-05-16 00:40:05,1,5.58182,-15.5,-8.78182,1.00601,1,1,49589.9,42192.7,1695,0.41190445,-6.8697205,260.14551,308.59082,64.1697,273.418,9.80804,2.28521,28.6124,26.3923
1980-05-16 00:40:45,1,6.3,-15.71,-8.84,0.520865,1,1,50400.3,41831.5,1695,0.41190445,-6.8697205,260.1377,308.59082,67.1918,273.149,4.07734,2.4848,28.8453,26.279
1980-05-16 00:41:26,1,5.49167,-15.8917,-8.4,0.44519,1,1,53876.5,43700.4,1695,0.41189569,-6.8696127,260.13574,308.59277,66.3841,274.22,5.75986,2.65803,29.8234,26.8597
1980-05-16 00:42:06,1,5.27,-15.74,-8.04,0.594054,1,1,50827.0,40777.1,1695,0.41188699,-6.869504,260.13013,308.59497,67.4702,273.448,5.22703,2.54457,28.9671,25.9457
1980-05-16 00:42:47,1,5.36667,-15.1583,-5.925,5.0977,1,1,46212.7,45152.1,1695,0.41188699,-6.869504,260.12231,308.59497,67.5564,277.357,5.30715,-9.22526,27.621,27.3022
1980-05-16 00:43:27,1,6.54545,-14.1,-10.8909,0.863206,1,1,46817.0,40410.6,1695,0.41187823,-6.8693953,260.12061,308.59717,68.412,272.891,2.88278,7.12898,27.801,25.8289
1980-05-16 00:44:08,1,5.375,-14.9,-11.9,0.860354,1,1,51271.4,42918.0,1695,0.41186953,-6.8692875,260.11475,308.59912,68.1911,275.686,1.98016,6.06894,29.0935,26.6181
1980-05-16 00:44:48,1,5.32,-14.34,-13.28,0.850647,1,1,55697.8,44392.5,1695,0.41186953,-6.8692875,260.11084,308.59912,67.9427,275.025,0.0446441,9.35661,30.3233,27.0715
1980-05-16 00:45:29,1,6.44167,-13.5083,-13.7167,0.957209,1,1,56861.2,45266.3,1695,0.41186076,-6.8691788,260.10522,308.60132,65.2681,273.454,-2.19815,10.259,30.6384,27.3366
1980-05-16 00:46:09,1,11.77,9.72,-17.91,1.18684,1,1,104033.0,62317.7,1695,0.41185206,-6.8690701,260.09937,308.60327,45.259,272.578,-22.2938,5.21013,41.4423,32.0748
1980-05-16 00:46:50,1,9.975,9.31667,-18.1667,1.11825,1,1,107927.0,73840.0,1695,0.41185206,-6.8690701,260.09546,308.60327,53.7398,269.653,-26.5512,11.976,42.2108,34.9143
1980-05-16 00:47:30,1,8.92727,10.2727,-18.4182,1.06856,1,1,135102.0,61702.7,1695,0.41184336,-6.8689623,260.08984,308.60547,51.1258,267.794,-24.8177,12.4852,47.2268,31.9161
1980-05-16 00:48:11,1,10.3583,9.3,-16.5,1.57822,1,1,111847.0,73705.2,1695,0.4118346,-6.8688536,260.08813,308.60767,59.3048,264.63,-26.5889,17.757,42.9705,34.8824
1980-05-16 00:48:51,1,9.01,7.76,-17.21,0.800125,1,1,102731.0,76660.8,1695,0.4118346,-6.8688536,260.08032,308.60767,52.3077,266.113,-21.499,14.1925,41.182,35.575
1980-05-16 00:49:32,1,9.89167,8.125,-15.9333,1.87302,1,1,95191.8,74886.9,1695,0.4118259,-6.8687449,260.07446,308.60962,48.1006,271.547,-18.3835,8.16218,39.6422,35.161
1980-05-16 00:50:12,1,10.2818,8.37273,-15.9182,1.29736,1,1,102305.0,80732.1,1695,0.41181713,-6.8686371,260.07275,308.61182,55.5593,267.421,-19.3048,8.56433,41.0967,36.5074
1980-05-16 00:50:53,1,9.46667,8.84167,-16.5917,3.44075,1,1,98974.7,73501.2,1695,0.41181713,-6.8686371,260.06494,308.61182,47.0796,275.528,-19.229,7.02099,40.4222,34.8341
1980-05-16 00:51:33,1,11.5182,4.40909,-12.3091,1.17452,1,1,94282.9,76115.6,1695,0.41180843,-6.8685284,260.06299,308.61377,66.5044,258.913,-19.2066,13.002,39.4525,35.4483
1980-05-16 00:52:14,1,13.1545,4.44545,-8.01818,1.43562,1,1,97306.7,76935.3,1695,0.41179967,-6.8684206,260.05737,308.61597,73.3006,252.936,-18.7105,8.92166,40.0801,35.6386
1980-05-16 00:52:54,1,12.74,4.97,-10.39,0.888482,1,1,80974.3,73253.3,1695,0.41179967,-6.8684206,260.05347,308.61597,64.2637,257.256,-19.9537,11.0074,36.5621,34.7753
1980-05-16 00:53:35,1,7.86,7.18,-12.58,4.93311,1,1,85526.0,73960.0,1695,0.41179097,-6.8683119,260.04761,308.61792,69.2919,259.553,-26.3502,12.0466,37.5757,34.9427
1980-05-16 00:54:15,1,7.1,8.52727,-12.9909,0.720537,1,1,69591.8,73231.9,1695,0.41178221,-6.8682032,260.04199,308.62012,66.5416,267.981,-23.8394,13.0421,33.8951,34.7703
1980-05-16 00:54:56,1,7.9,9.45455,-11.1909,1.53553,1,1,83830.2,84790.0,1695,0.41178221,-6.8682032,260.03809,308.62012,66.9882,268.257,-24.3887,6.92451,37.2013,37.4137
1980-05-16 00:55:36,1,8.74545,9.95455,-9.68182,3.87241,1,1,58629.9,68205.2,1695,0.4117735,-6.8680954,260.03247,308.62231,64.0186,267.581,-32.3066,2.72407,31.1112,33.5557
1980-05-16 00:56:17,1,8.35455,8.41818,-12.1727,3.10755,1,1,62267.0,60294.1,1695,0.41176474,-6.8679867,260.03052,308.62427,57.7885,268.573,-13.6171,13.7512,32.0617,31.5497
1980-05-16 00:56:57,1,3.3,1.06,-16.32,1.40071,1,1,80866.8,75491.3,1695,0.41176474,-6.8679867,260.02271,308.62427,67.5208,277.739,-11.9679,16.743,36.5378,35.3026
1980-05-16 00:57:38,1,3.75833,5.90833,-15.9,2.84046,1,1,57078.6,62467.4,1695,0.41175604,-6.867878,260.01709,308.62646,66.6697,275.228,-16.8491,13.8255,30.6969,32.1133
1980-05-16 00:58:18,1,1.49167,8.94167,-15.3,1.49717,1,1,56000.0,58052.4,1695,0.41174728,-6.8677702,260.01514,308.62842,63.0781,274.941,-22.1192,12.5844,30.4055,30.9576
1980-05-16 00:58:59,1,1.43333,10.2667,-14.3333,0.674537,1,1,56463.2,60779.1,1695,0.41174728,-6.8677702,260.00732,308.62842,66.5455,276.323,-22.4421,13.3337,30.531,31.6764
1980-05-16 00:59:39,1,-0.609091,15.4727,-12.3636,0.983332,1,1,44189.8,54029.7,1695,0.41173857,-6.8676615,260.00562,308.63062,63.3825,278.488,-27.9657,10.7834,27.0097,29.8658
1980-05-16 01:00:20,1,-2.53333,13.875,-12.2333,0.624222,1,1,47540.6,57968.9,1695,0.41172987,-6.8675537,260.0,308.63281,66.5715,281.964,-26.2986,9.23437,28.015,30.9354
1980-05-16 01:01:00,1,-0.609091,12.2818,-13.1636,1.99296,1,1,51001.2,55766.9,1695,0.41172111,-6.867444,259.99805,308.63477,63.5457,277.439,-24.2379,12.3825,29.0167,30.3421
1980-05-16 01:01:41,1,-1.3,14.0545,-10.6455,2.4855,1,1,54819.1,58511.1,1695,0.41172111,-6.8674431,259.99023,308.63477,65.2803,278.985,-26.6471,9.5688,30.0832,31.0797
1980-05-16 01:02:21,1,-0.0363636,14.6,-10.3727,1.18962,1,1,57608.0,55382.6,1695,0.41171241,-6.8673334,259.98462,308.63696,65.2751,278.719,-27.6018,10.9839,30.8389,30.2374
1980-05-16 01:03:02,1,0.836364,16.6636,-8.08182,0.977347,1,1,63426.7,55967.0,1695,0.41170371,-6.8672247,259.98267,308.63892,58.7784,276.892,-31.7584,9.48208,32.3589,30.3965
1980-05-16 01:03:42,1,2.0,16.3182,-5.81818,0.434085,1,1,63256.4,70672.6,1695,0.41170365,-6.8672237,259.97485,308.63892,59.4021,276.018,-36.7662,7.85448,32.3154,34.1573
1980-05-16 01:04:23,1,2.59091,16.3818,-5.28182,0.594048,1,1,64664.2,69872.8,1695,0.41169494,-6.8671141,259.97314,308.64111,63.0083,274.488,-35.3796,7.23857,32.6731,33.9635
1980-05-16 01:05:44,1,1.78889,-13.9778,-13.0333,0.983443,1,1,71657.5,47805.3,1695,0.41168624,-6.8670044,259.95972,308.64331,61.8169,277.824,-0.581854,13.0357,34.3945,28.0928
1980-05-16 01:06:24,1,2.97273,-12.9636,-14.3182,1.41754,1,1,56596.1,50827.7,1695,0.41167754,-6.8668947,259.95776,308.64526,58.2336,273.246,1.28678,16.1261,30.5669,28.9673
1980-05-16 01:07:05,1,0.109091,-10.8727,-15.9455,1.1793,1,1,62291.4,51855.3,1695,0.41166878,-6.866785,259.95215,308.64746,66.3102,279.659,0.610877,18.1143,32.068,29.2587
1980-05-16 01:07:45,1,0.425,-9.35,-17.3083,0.488336,1,1,57935.8,47602.8,1695,0.41166878,-6.866785,259.94824,308.64746,59.7879,278.785,-1.99593,19.0819,30.9266,28.0333
1980-05-16 01:08:26,1,0.681818,-7.72727,-18.2545,1.56104,1,1,56372.5,45611.0,1695,0.41166008,-6.8666754,259.94263,308.64966,59.3838,277.67,-6.11827,20.6007,30.5064,27.4405
1980-05-16 01:09:06,1,-1.19167,-9.65,-16.9,0.752727,1,1,66048.7,47578.3,1695,0.41165137,-6.8665657,259.93677,308.65161,60.9864,281.364,-0.859581,19.5477,33.021,28.0261
1980-05-16 01:09:47,1,-4.72727,-14.7727,-9.71818,0.49909,1,1,74011.5,47752.8,1695,0.41165131,-6.8665657,259.93286,308.65161,60.8771,285.069,7.13053,10.6119,34.9549,28.0774
1980-05-16 01:10:27,1,-4.06364,-12.9182,-13.5273,0.431028,1,1,61791.9,46880.5,1695,0.41164261,-6.866456,259.92725,308.65381,60.5743,283.236,3.77918,17.0099,31.9392,27.8198
1980-05-16 01:11:08,1,-3.85455,-12.6182,-13.8182,0.584652,1,1,70106.6,48255.4,1695,0.41163391,-6.8663464,259.92529,308.65576,61.9177,285.049,2.44604,17.1439,34.0202,28.2248
1980-05-16 01:11:48,1,-3.69091,-13.6273,-12.2636,1.3476,1,1,61481.4,48185.2,1695,0.41163391,-6.8663464,259.91748,308.65576,59.9547,285.348,4.98226,8.48988,31.8588,28.2043
1980-05-16 01:12:29,1,-4.64545,-12.3636,-14.2545,0.356753,1,1,64851.3,49123.8,1695,0.41162515,-6.8662367,259.91577,308.65796,61.8633,286.983,2.35696,14.5368,32.7203,28.4776
1980-05-16 01:13:09,1,-3.22727,-12.8909,-14.6545,0.310159,1,1,64036.0,48940.2,1695,0.41161644,-6.866127,259.91016,308.66016,62.749,284.214,3.15957,12.8474,32.514,28.4244
1980-05-16 01:13:50,1,-1.54545,-8.94545,-17.3273,1.34828,1,1,62710.4,49895.3,1695,0.41161644,-6.866127,259.90234,308.66016,63.569,283.613,-1.69809,17.9465,32.1757,28.7004
1980-05-16 01:14:30,1,-1.16364,-8.16364,-18.0364,0.910363,1,1,53197.2,46393.8,1695,0.41160774,-6.8660173,259.90039,308.66211,59.11,281.688,-4.46975,19.4616,29.6348,27.675
1980-05-16 01:15:11,1,-0.572727,-4.85455,-19.3727,1.12779,1,1,64128.0,52145.0,1695,0.41159904,-6.8659077,259.89478,308.66431,62.6908,280.347,-8.47756,19.4354,32.5373,29.3403
1980-05-16 01:15:51,1,-1.20909,-2.11818,-20.0636,0.835078,1,1,58148.8,51747.0,1695,0.41159898,-6.8659077,259.89087,308.66431,62.6154,281.034,-14.1115,20.1036,30.9834,29.2281
1980-05-16 01:16:32,1,0.308333,-0.933333,-19.8167,0.716037,1,1,62378.2,49829.6,1695,0.41159028,-6.865798,259.88525,308.6665,62.8406,278.074,-13.0835,20.8229,32.0903,28.6815
1980-05-16 01:17:11,1,0.483333,1.86667,-18.7583,0.61458,1,1,71402.6,48824.7,1695,0.41158158,-6.8656883,259.87939,308.66846,62.6723,277.992,-17.0225,18.443,34.3332,28.3908
1980-05-16 01:53:25,-1,nan,nan,nan,nan,1,3,nan,nan,1695,0.41126758,-6.8617401,259.62329,308.74438,nan,260.091,13.4276,-3.79398,nan,nan
1980-05-16 01:54:05,1,9.61,-12.07,-11.65,1.76791,1,1,41481.7,43552.8,1695,0.41125888,-6.8616304,259.62158,308.74658,49.8759,260.067,6.9116,12.0501,26.1689,26.8143
1980-05-16 01:54:46,1,9.75,-8.83,-14.91,1.08881,1,1,47093.9,45730.6,1695,0.41125882,-6.8616304,259.61377,308.74658,48.8578,261.772,5.88176,11.2877,27.883,27.4765
1980-05-16 01:55:26,1,8.8,-9.13333,-15.4222,0.407643,1,1,40131.6,41846.3,1695,0.41125011,-6.8615208,259.61182,308.74854,46.2207,262.168,0.7428,22.1216,25.7396,26.2837
1980-05-16 01:56:08,1,9.11111,-9.2,-14.5667,1.51543,1,1,40876.6,43731.4,1695,0.41124141,-6.8614111,259.6062,308.75073,50.2779,259.577,-2.42325,22.7235,25.9774,26.8692
1980-05-16 01:56:48,1,11.22,-7.6,-13.85,1.48866,1,1,40090.9,42347.6,1695,0.41124141,-6.8614111,259.59839,308.75073,48.4079,261.966,6.65283,15.6991,25.7265,26.4407
1980-05-16 01:57:29,1,9.9,-7.33333,-15.4778,1.38305,1,1,45949.7,45121.5,1695,0.41123265,-6.8613014,259.59668,308.75293,53.9521,258.608,-0.784446,20.0824,27.5422,27.2929
1980-05-16 01:58:09,1,10.2556,-6.17778,-15.4889,1.11588,1,1,46665.1,42834.1,1695,0.41122395,-6.8611917,259.59082,308.75488,47.9615,261.104,-3.34611,24.9641,27.7558,26.5921
1980-05-16 01:58:50,1,11.0222,-6.33333,-14.2333,1.24969,1,1,48193.4,43313.9,1695,0.41122395,-6.8611917,259.58691,308.75488,50.0566,258.153,-4.84896,23.4629,28.2067,26.7406
1980-05-16 01:59:30,1,6.72727,-5.09091,-17.2818,3.0488,1,1,52997.8,53322.1,1695,0.41121525,-6.8610821,259.5813,308.75708,54.7101,262.591,-5.08717,26.8757,29.5792,29.6696
1980-05-16 02:00:11,1,5.1,-3.93,-18.57,1.65958,1,1,57991.1,49938.5,1695,0.41120654,-6.8609724,259.57568,308.75928,51.3033,271.072,-6.56087,29.7524,30.9413,28.7128
1980-05-16 02:00:51,1,5.04,-0.46,-19.15,2.83995,1,1,57413.0,31574.9,1695,0.41120648,-6.8609715,259.57178,308.75928,43.9165,269.932,-28.8016,30.1507,30.7867,22.8312
1980-05-16 02:01:32,1,5.975,-6.05,-17.7333,0.864059,1,1,51070.2,39633.4,1695,0.41119778,-6.8608608,259.56592,308.76123,46.7841,270.246,-5.05358,26.5333,29.0363,25.5793
1980-05-16 02:02:12,1,8.23,-6.95,-16.43,0.881306,1,1,54148.4,45362.7,1695,0.41118908,-6.8607502,259.56421,308.76343,53.807,263.784,-0.850809,22.3491,29.8986,27.3657
1980-05-16 02:02:53,1,7.79,-6.66,-16.87,0.536097,1,1,52761.0,44839.1,1695,0.41118908,-6.8607502,259.5564,308.76343,51.6562,264.988,-3.39456,25.327,29.5131,27.2074
1980-05-16 02:03:33,1,6.21,-6.77,-17.77,0.561338,1,1,45768.5,41613.0,1695,0.41118038,-6.8606396,259.55054,308.76538,48.3949,272.597,-0.137814,28.3488,27.4879,26.2103
1980-05-16 02:04:14,1,9.36667,-7.56667,-14.5083,1.29687,1,1,53753.2,43528.7,1695,0.41117167,-6.860528,259.54883,308.76758,50.5353,262.608,-4.66586,26.4118,29.7893,26.8068
1980-05-16 02:04:54,1,11.05,-8.85,-11.48,1.79349,1,1,45412.9,42592.3,1695,0.41117162,-6.860528,259.54102,308.76758,47.9474,256.14,-0.236378,21.1073,27.3809,26.5169
1980-05-16 02:05:35,1,12.3455,-9.79091,-9.06364,1.21438,1,1,39422.2,48179.4,1695,0.41116291,-6.8604174,259.53931,308.76978,52.4835,253.282,7.24606,5.50054,25.5111,28.2026
1980-05-16 02:06:15,1,11.66,-9.61,-11.46,1.24648,1,1,41064.8,46907.7,1695,0.41115421,-6.8603067,259.53345,308.77173,52.6185,254.514,5.68078,10.4416,26.0371,27.8279
1980-05-16 02:06:56,1,11.81,-8.72,-12.42,0.871837,1,1,44437.9,46847.7,1695,0.41115421,-6.8603067,259.52563,308.77173,51.3461,256.301,1.506,19.9318,27.0854,27.8101
1980-05-16 02:07:36,1,12.72,-8.26,-10.78,1.9369,1,1,45831.6,44928.2,1695,0.41114551,-6.8601961,259.52393,308.77393,50.4906,258.088,7.5057,12.7249,27.5068,27.2344
1980-05-16 02:08:17,1,13.83,-7.32,-9.62,1.29433,1,1,42908.7,48218.3,1695,0.41113681,-6.8600845,259.51831,308.77612,54.6765,252.144,2.29208,11.9272,26.6153,28.2139
1980-05-16 02:08:57,1,15.02,-4.08,-8.52,1.33147,1,1,47524.9,47095.7,1695,0.41113681,-6.8600845,259.5144,308.77612,52.0517,248.348,-7.06322,6.45338,28.0103,27.8836
1980-05-16 02:09:38,1,13.5,-6.62727,-12.1909,0.755038,1,1,42489.1,46248.9,1695,0.41112804,-6.8599739,259.50854,308.77808,49.4288,252.629,0.520401,16.8508,26.4848,27.6318
1980-05-16 02:10:18,1,9.3,-9.31111,-14.2222,1.68735,1,1,41343.2,41240.1,1695,0.41111934,-6.8598633,259.50684,308.78027,45.129,257.526,2.0176,18.8704,26.1252,26.0926
1980-05-16 02:10:59,1,8.02,-10.08,-14.92,2.01812,1,1,49241.3,45221.2,1695,0.41111934,-6.8598633,259.49902,308.78027,47.0567,261.817,7.00708,15.3276,28.5117,27.323
1980-05-16 02:11:39,1,4.95,-12.48,-13.99,2.62126,1,1,44202.9,36083.4,1695,0.41111064,-6.8597527,259.49341,308.78247,42.6713,264.808,8.75436,22.1821,27.0137,24.4068
1980-05-16 02:12:20,1,0.74,-14.29,-11.9,2.2484,1,1,47708.8,41726.3,1695,0.41110194,-6.8596411,259.49146,308.78442,47.175,274.51,15.9896,17.0999,28.0645,26.246
1980-05-16 02:13:00,1,5.51,-11.61,-14.24,2.52788,1,1,42387.0,42216.4,1695,0.41109324,-6.8595304,259.48584,308.78662,44.4236,261.003,5.33886,26.2725,26.4529,26.3997
1980-05-16 02:13:41,1,9.91818,-7.61818,-13.9455,2.3718,1,1,52102.7,42378.9,1695,0.41109318,-6.8595304,259.48193,308.78662,45.0192,255.143,1.1265,24.572,29.3284,26.4504
1980-05-16 02:14:21,1,10.9222,-8.2,-12.1556,2.80075,1,1,43646.4,42873.5,1695,0.41108447,-6.8594198,259.47632,308.78882,45.8396,254.154,2.04384,24.1307,26.8431,26.6043
1980-05-16 02:15:02,1,11.0455,-9.11818,-12.3182,1.03309,1,1,46907.1,45556.3,1695,0.41107577,-6.8593092,259.47046,308.79077,46.9304,255.151,5.44378,18.2194,27.8277,27.4241
1980-05-16 02:15:42,1,13.3778,-4.11111,-12.0778,1.85891,1,1,51828.7,46041.2,1695,0.41107577,-6.8593082,259.46655,308.79077,51.643,251.883,-9.41492,18.7991,29.2511,27.5697
1980-05-16 02:16:23,1,12.0636,-3.53636,-13.7545,2.94245,1,1,57894.5,45158.9,1695,0.41106707,-6.8591976,259.46094,308.79297,56.5603,253.533,-10.3078,25.5391,30.9155,27.3042
1980-05-16 02:17:03,1,8.72,-7.6,-15.76,2.60615,1,1,48355.6,50637.3,1695,0.41105837,-6.859087,259.45923,308.79517,55.8503,261.852,0.872808,23.7941,28.2541,28.913
1980-05-16 02:17:44,1,11.24,-8.34,-13.33,0.69491,1,1,40798.7,51631.6,1695,0.41105831,-6.859087,259.45142,308.79517,51.7963,258.721,2.0345,22.3848,25.9526,29.1955
1980-05-16 02:18:24,1,10.01,-9.11,-13.76,1.13058,1,1,48887.7,46912.1,1695,0.4110496,-6.8589764,259.44946,308.79712,51.8823,255.996,3.45786,22.7036,28.4091,27.8292
1980-05-16 02:19:05,1,9.58,-9.21,-14.04,0.90934,1,1,53874.0,43815.3,1695,0.4110409,-6.8588648,259.44385,308.79932,50.032,256.55,0.681294,25.5649,29.8227,26.895
1980-05-16 02:19:45,1,12.7091,-7.41818,-11.3818,2.38293,1,1,46104.7,43159.1,1695,0.4110409,-6.8588648,259.43604,308.79932,46.8516,255.164,2.9953,16.4328,27.5887,26.6928
1980-05-16 02:20:26,1,15.5455,-3.09091,-8.33636,0.987274,1,1,53932.6,45277.1,1695,0.4110322,-6.8587542,259.43433,308.80151,52.9271,244.627,-7.16464,12.4198,29.8389,27.3399
1980-05-16 02:21:47,1,11.85,-4.9375,-15.2,0.659427,1,1,45905.1,49316.1,1695,0.4110235,-6.8586435,259.42456,308.80347,52.886,252.146,-7.8522,25.301,27.5289,28.5333
1980-05-16 02:22:27,1,11.37,-8.27,-14.16,0.794103,1,1,43393.0,51194.4,1695,0.41101474,-6.8585329,259.41895,308.80566,50.2573,255.092,-0.897352,22.9583,26.765,29.0716
1980-05-16 02:23:08,1,9.1,-12.29,-10.76,0.845754,1,1,52030.9,47858.7,1695,0.41100603,-6.8584213,259.41309,308.80762,56.1599,258.224,8.61163,19.2566,29.3082,28.1086
1980-05-16 02:23:48,1,8.58,-10.22,-14.86,0.906422,1,1,41493.4,45110.1,1695,0.41100603,-6.8584213,259.40918,308.80762,47.1203,262.532,6.51752,24.8365,26.1726,27.2895
1980-05-16 02:24:29,1,14.17,-8.54,-3.52,2.1868,1,1,50086.2,45878.6,1695,0.41099733,-6.8583107,259.40356,308.80981,54.6308,246.587,1.17699,-2.24464,28.7552,27.5209
1980-05-16 02:25:09,1,13.85,-8.36,-6.86,2.15344,1,1,44685.9,46260.6,1695,0.41098863,-6.8582001,259.40186,308.81201,52.0426,244.932,0.811639,4.10818,27.1608,27.6353
1980-05-16 02:25:50,1,11.8333,-8.95556,-11.1222,0.850998,1,1,56251.2,45305.5,1695,0.41098863,-6.8582001,259.39404,308.81201,51.2016,256.15,3.14943,20.8988,30.4736,27.3485
1980-05-16 02:26:30,1,11.7111,-8.81111,-12.7667,0.734679,1,1,43635.1,45711.2,1695,0.41097987,-6.8580894,259.38818,308.81396,48.4093,255.69,1.8953,21.8747,26.8396,27.4707
1980-05-16 02:27:11,1,9.06364,-5.76364,-16.8545,0.912448,1,1,50580.2,45986.5,1695,0.41097116,-6.8579779,259.38647,308.81616,51.882,257.55,-3.07644,27.6884,28.8967,27.5533
1980-05-16 02:27:51,1,10.65,-7.21,-15.04,0.994887,1,1,43781.0,48197.7,1695,0.41097116,-6.8579779,259.37866,308.81616,52.7877,254.809,-3.81505,25.2802,26.8844,28.2079
1980-05-16 02:28:32,1,11.74,-6.06,-14.52,0.807713,1,1,45303.8,44409.2,1695,0.41096246,-6.8578672,259.37695,308.81836,51.3749,252.459,-9.55929,25.2615,27.348,27.0766
1980-05-16 02:29:12,1,9.86,-7.99,-15.61,1.27366,1,1,50623.7,47425.9,1695,0.41095376,-6.8577566,259.37109,308.82031,51.7019,259.405,0.0772113,24.6521,28.9091,27.9812
1980-05-16 02:29:53,1,10.64,-7.4,-15.76,0.480416,1,1,51697.8,42609.0,1695,0.41095376,-6.8577566,259.36719,308.82031,49.4484,256.115,-3.66421,25.9827,29.2142,26.5221
1980-05-16 02:30:33,1,10.2364,-6.82727,-16.1455,0.877732,1,1,49584.2,46935.9,1695,0.410945,-6.857645,259.36157,308.82251,51.1471,257.421,-3.28744,27.3417,28.6108,27.8362
1980-05-16 02:31:14,1,10.18,-7.15,-15.84,0.313847,1,1,51730.4,47449.4,1695,0.4109363,-6.8575344,259.35596,308.82471,52.0365,258.985,-3.37929,27.4363,29.2234,27.9881
1980-05-16 02:31:54,1,10.48,-6.85,-16.08,0.609672,1,1,44943.8,48635.6,1695,0.4109363,-6.8575344,259.35205,308.82471,48.495,258.264,-4.69894,26.1736,27.2391,28.3358
1980-05-16 02:32:35,1,11.5182,-6.46364,-15.3091,0.591678,1,1,51187.6,44645.8,1695,0.41092759,-6.8574238,259.34619,308.82666,50.0901,256.96,-4.70551,26.5435,29.0697,27.1486
1980-05-16 02:33:15,1,11.3,-7.77,-14.51,0.773951,1,1,42758.2,46273.8,1695,0.41091889,-6.8573132,259.34448,308.82886,46.6135,256.168,0.966303,26.5959,26.5685,27.6392
1980-05-16 02:33:56,1,-6.07273,-13.5273,-11.6,3.96741,1,1,76221.0,69813.0,1695,0.41091889,-6.8573132,259.33667,308.82886,73.9656,280.196,10.3661,18.6272,35.4728,33.9489
1980-05-16 02:34:36,1,-8.27273,-14.1,-9.99091,0.590139,1,1,59432.3,42143.6,1695,0.41091019,-6.8572016,259.33105,308.83105,53.1716,289.094,11.2731,18.7795,31.3234,26.3769
1980-05-16 02:35:17,1,-6.71667,-14.225,-11.1,0.564149,1,1,58373.6,42803.7,1695,0.41090143,-6.857091,259.3291,308.83301,52.6769,285.796,12.5922,20.4831,31.0432,26.5827
1980-05-16 02:35:57,1,-7.91818,-14.2273,-9.73636,0.660828,1,1,61700.3,45327.8,1695,0.41090143,-6.857091,259.32129,308.83301,54.2373,290.203,12.591,17.1211,31.9155,27.3552
1980-05-16 02:36:38,1,-6.99167,-14.3417,-9.23333,0.640638,1,1,61623.6,42203.2,1695,0.41089272,-6.8569803,259.31958,308.83521,53.9344,286.093,14.2864,19.184,31.8957,26.3955
1980-05-16 02:37:18,1,-0.609091,-12.9182,-11.8545,0.917146,1,1,70760.5,37486.7,1695,0.41088402,-6.8568697,259.31396,308.8374,47.7117,276.06,10.2033,22.8846,34.1785,24.8769
1980-05-16 02:37:59,1,-0.791667,-13.0583,-11.0667,0.426712,1,1,64401.2,39794.9,1695,0.41088402,-6.8568697,259.30615,308.8374,53.5712,276.617,14.9801,21.3375,32.6066,25.6314
1980-05-16 02:38:39,1,-4.17273,-13.0,-9.7,2.80975,1,1,65661.5,38528.9,1695,0.41087532,-6.8567581,259.3042,308.83936,52.1494,278.241,12.5874,23.3616,32.9241,25.2204
1980-05-16 02:39:20,1,-5.84167,-13.3083,-8.16667,0.583452,1,1,88951.6,43657.3,1695,0.41086656,-6.8566475,259.29858,308.84155,54.9785,282.361,10.9131,16.9726,38.3208,26.8464
1980-05-16 02:40:00,1,-6.26364,-12.9545,-6.78182,0.805046,1,1,68831.8,38897.5,1695,0.41085786,-6.8565369,259.29688,308.84375,49.0015,283.037,13.34,16.633,33.7095,25.3407
1980-05-16 02:40:41,1,-3.89167,-12.9,-7.34167,2.70368,1,1,74639.0,46274.3,1695,0.41085786,-6.8565369,259.28906,308.84375,51.5519,285.37,15.9211,16.0576,35.1027,27.6393
1980-05-16 02:41:21,1,2.46364,-10.7455,-9.81818,2.5461,1,1,85199.9,43863.1,1695,0.41084915,-6.8564262,259.28711,308.8457,44.5279,268.881,8.56209,22.835,37.504,26.9096
1980-05-16 02:42:02,1,6.97273,-6.33636,-12.3636,1.6704,1,1,97471.9,55145.2,1695,0.41084045,-6.8563147,259.28149,308.8479,54.7128,261.135,5.10027,29.2003,40.1141,30.1725
1980-05-16 02:42:42,1,9.66,-3.16,-12.15,1.39402,1,1,83353.7,59245.1,1695,0.41084045,-6.8563147,259.27368,308.8479,54.049,253.399,-0.823115,31.5036,37.0954,31.274
1980-05-16 02:43:23,1,10.24,-5.01,-14.46,0.36565,1,1,52662.7,46017.1,1695,0.41083169,-6.856204,259.27173,308.84985,49.5326,260.65,-1.56546,23.7514,29.4856,27.5624
1980-05-16 02:44:03,1,10.76,-5.55,-13.56,0.487134,1,1,63069.4,47869.5,1695,0.41082299,-6.8560934,259.26611,308.85205,50.9278,260.046,0.875262,20.5358,32.2676,28.1117